Weather in New Plymouth

New Zealand     39°03′34″S   174°05′03″E
temp.,
°C
wind,
m/s
gust,
m/s
humid.,
%
clouds,
%
prec.,
mm/h
press.,
hPa
HPBL,
m
28 november, sun
sun2801:00+16s22855 0.0 1023169
04:00+16ese2188100 0.0 1023103
07:00+16nne1287100 0.2 1023222
10:00+17nw2382100 0.1 1024458
13:00+18wnw4478100 0.2 1024636
16:00+18wnw447899 0.0 1023622
19:00+17w4480100 0.0 1022569
22:00+17w348298 0.0 1023434
29 november, mon
mon2901:00+17w3481100 0.0 1022398
04:00+17wsw238299 0.0 1021317
07:00+17wnw228534 0.0 1022322
10:00+17wnw338567 0.1 1022376
13:00+18wnw458335 0.1 1022466
16:00+18wnw568227 0.0 1020508
19:00+18w468399 0.0 1020468
22:00+18w468999 0.0 1020409
30 november, tue
tue3001:00+17w4594100 0.7 1020335
04:00+17wnw5693100 0.6 1019398
07:00+17w5693100 1.0 1019411
10:00+17w5694100 1.2 1019390
13:00+17w7895100 5.1 1019498
16:00+17w5795100 4.9 1018426
19:00+17w5694100 8.3 1018395
22:00+17wsw5692100 0.8 1019386
1 december, wed
wed101:00+17sw5691100 1.8 1019347
04:00+17sw4491100 0.0 1019303
07:00+17ese128985 0.1 1020177
10:00+18ene128434 0.0 1021200
13:00+18nw438320 0.0 1020319
16:00+19wnw44782 0.0 1019292
19:00+20n2277100 0.0 102061
22:00+19ene3483100 0.0 102279
2 december, thu
thu201:00+18ene4582100 0.0 1023172
04:00+18ene359194 0.1 1022202
07:00+17e4486100 0.1 1023211
10:00+18ne3476100 0.0 1024301
13:00+18n3476100 0.0 1024318
16:00+18nw2378100 0.0 1023275
19:00+19w2384100 0.0 1022248
22:00+18ssw1187100 0.0 102312